カタログに戻る

BEIDOU 3M14

運用中ナビゲーションMEO
NORAD 43623·PAYLOAD·🇨🇳 China

打ち上げ Sep 19, 2018 から Xichang Satellite Launch Center

Loading…

次のパス (今後24時間)

TLE

最新Source: CelesTrak SupGP

元期: Sep 12, 2026, 00:00 UTC

1 43623C 18072B   26255.00000000  .00000000  00000+0  00000+0 0  2559
2 43623  56.7067  59.7935 0003438  24.1520  75.7474  1.86231220    11

AllMySatでBEIDOU 3M14をリアルタイム追跡

Download on the App Store